EW7152 Weather Reports


Display with metric or nautical units.
time (UTC)temp
F
wind
direction
speed
MPH
gust
MPH
rain 1hr
in
rain 24hr
in
rain mn
in
humidity
%
barometer
mb
20220927113036 47 97 0.0 3.0 0.00 0.01 0.00 89 1014.2
20220927111529 48 89 0.0 1.0 0.00 0.01 0.00 89 1014.1
20220927110014 48 89 0.0 2.0 0.00 0.01 0.00 89 1014.0
20220927104511 48 89 0.0 2.0 0.00 0.01 0.00 88 1014.1
20220927103008 49 89 0.0 1.0 0.00 0.01 0.00 87 1014.1
20220927101506 50 89 0.0 0.0 0.00 0.01 0.00 86 1014.1
20220927100007 51 89 0.0 2.0 0.00 0.01 0.00 87 1014.0
20220927094633 52 89 0.0 4.0 0.00 0.01 0.00 86 1014.0
20220927093057 53 90 0.0 1.0 0.00 0.01 0.00 84 1014.0
20220927091554 53 90 0.0 2.0 0.00 0.01 0.00 83 1013.7
20220927090051 54 90 0.0 2.0 0.00 0.01 0.00 81 1013.7
20220927084549 55 90 0.0 3.0 0.00 0.01 0.00 80 1013.6
20220927083048 56 90 1.0 3.0 0.00 0.01 0.00 79 1013.4
20220927081602 56 91 2.0 4.0 0.00 0.01 0.00 77 1013.3
20220927080039 58 92 5.0 7.0 0.00 0.01 0.00 75 1013.2
20220927074534 60 87 2.0 8.0 0.00 0.01 0.00 71 1013.2
20220927073035 63 264 0.0 1.0 0.00 0.01 0.00 64 1013.1
20220927071536 64 264 0.0 3.0 0.00 0.01 0.00 60 1012.9
20220927070028 65 262 1.0 4.0 0.00 0.01 0.00 59 1012.8
20220927064530 66 275 2.0 6.0 0.00 0.01 0.00 58 1012.7
20220927063026 66 260 3.0 7.0 0.00 0.01 0.00 58 1012.6
20220927061531 67 237 2.0 5.0 0.00 0.01 0.00 56 1012.6
20220927060025 68 246 2.0 6.0 0.00 0.01 0.00 55 1012.6
20220927054531 68 299 3.0 7.0 0.00 0.01 0.00 54 1012.6
20220927053022 67 311 3.0 9.0 0.00 0.01 0.00 55 1012.5
20220927051535 67 264 0.0 5.0 0.00 0.01 0.00 56 1012.5
20220927050020 67 295 2.0 7.0 0.00 0.01 0.00 56 1012.6
20220927044521 67 274 3.0 6.0 0.00 0.01 0.00 55 1012.6
20220927043021 66 336 1.0 8.0 0.00 0.01 0.00 56 1012.7
20220927041525 68 293 5.0 8.0 0.00 0.01 0.00 53 1012.9
20220927040014 67 266 4.0 10.0 0.00 0.01 0.00 56 1012.9
20220927034511 68 256 4.0 12.0 0.00 0.01 0.00 55 1013.2
20220927033021 67 299 4.0 11.0 0.00 0.01 0.00 58 1013.4
20220927031507 67 247 3.0 7.0 0.00 0.01 0.00 57 1013.5
20220927030004 68 336 3.0 10.0 0.00 0.01 0.00 55 1013.7
20220927024501 66 314 1.0 6.0 0.00 0.01 0.00 56 1014.0
20220927023104 67 10 6.0 10.0 0.00 0.01 0.00 56 1014.2
20220927021634 67 245 3.0 7.0 0.00 0.01 0.00 55 1014.4
20220927020118 67 305 2.0 9.0 0.00 0.01 0.00 55 1014.6
20220927014556 65 1 2.0 6.0 0.00 0.01 0.00 58 1014.8
20220927013050 65 314 2.0 6.0 0.00 0.01 0.00 57 1015.2
20220927011605 64 237 4.0 8.0 0.00 0.01 0.00 58 1015.4
20220927010041 64 272 2.0 7.0 0.00 0.01 0.00 61 1015.6
20220927004539 0 0.0 0.0 0.00 0.01 0.00 1015.9
20220927001516 62 245 2.0 8.0 0.00 0.01 0.01 59 1016.0
20220927000025 61 250 2.0 6.0 0.00 0.01 0.01 66 1016.2
20220926234510 60 266 3.0 6.0 0.00 0.01 0.01 63 1016.4
20220926233007 59 333 2.0 6.0 0.00 0.01 0.01 64 1016.5
20220926231502 56 117 0.0 3.0 0.00 0.01 0.01 86 1016.6
20220926230157 52 118 0.0 3.0 0.00 0.01 0.01 99 1016.9
20220926224559 51 213 0.0 2.0 0.00 0.01 0.01 99 1016.9
20220926223051 48 213 0.0 2.0 0.00 0.01 0.01 99 1017.1
20220926221555 45 213 0.0 2.0 0.00 0.01 0.01 99 1017.2
20220926220046 43 213 1.0 3.0 0.00 0.01 0.01 98 1017.2
20220926214550 42 210 1.0 3.0 0.00 0.01 0.01 98 1017.2
20220926213105 41 210 1.0 2.0 0.00 0.01 0.01 99 1017.3
20220926211541 40 210 0.0 2.0 0.00 0.01 0.01 98 1017.2
20220926210120 38 210 0.0 3.0 0.00 0.01 0.01 98 1017.1
20220926204527 37 210 0.0 2.0 0.00 0.02 0.01 98 1017.2
20220926203024 37 210 1.0 3.0 0.00 0.02 0.01 98 1017.1
20220926201524 36 210 0.0 2.0 0.00 0.02 0.01 98 1017.0
20220926200025 36 210 0.0 0.0 0.01 0.02 0.01 97 1016.8
20220926194519 36 210 0.0 1.0 0.01 0.02 0.01 97 1016.8
20220926193019 36 210 0.0 2.0 0.01 0.02 0.01 97 1016.6
20220926191517 36 210 0.0 1.0 0.00 0.01 0.00 97 1016.5
20220926190014 36 210 0.0 0.0 0.00 0.01 0.00 97 1016.3
20220926184512 36 210 0.0 2.0 0.00 0.01 0.00 97 1016.1
20220926183018 36 210 0.0 2.0 0.00 0.01 0.00 97 1016.2
20220926181513 36 210 0.0 2.0 0.00 0.01 0.00 97 1016.2
20220926180008 36 210 1.0 3.0 0.00 0.01 0.00 97 1016.2
20220926174506 37 210 1.0 3.0 0.00 0.01 0.00 97 1016.0
20220926173006 37 210 1.0 4.0 0.00 0.01 0.00 97 1016.1
20220926171505 36 210 0.0 2.0 0.00 0.01 0.00 96 1016.1
20220926170005 36 210 1.0 3.0 0.00 0.01 0.00 96 1016.3
20220926164600 36 219 1.0 4.0 0.00 0.01 0.00 95 1016.4
20220926163137 36 219 2.0 4.0 0.00 0.01 0.00 95 1016.6
20220926161600 36 218 2.0 4.0 0.00 0.01 0.00 95 1016.8
20220926160112 35 218 1.0 3.0 0.00 0.01 0.00 95 1016.9
20220926154551 35 218 1.0 4.0 0.00 0.01 0.00 93 1017.0
20220926153154 33 217 0.0 2.0 0.00 0.01 0.00 89 1017.3
20220926151554 33 217 0.0 0.0 0.00 0.01 0.00 89 1017.4
20220926150050 33 217 0.0 2.0 0.00 0.01 0.00 89 1017.7
20220926144559 34 217 0.0 1.0 0.00 0.01 0.00 89 1017.7
20220926143037 34 217 0.0 2.0 0.00 0.01 0.00 89 1017.7
20220926141535 34 217 1.0 3.0 0.00 0.01 0.00 89 1017.7
20220926140034 35 217 0.0 0.0 0.00 0.01 0.00 89 1017.7
20220926134530 35 217 0.0 1.0 0.00 0.01 0.01 89 1017.9
20220926133029 35 217 0.0 2.0 0.00 0.01 0.01 88 1018.1
20220926131529 36 217 0.0 0.0 0.00 0.01 0.01 88 1018.1
20220926130030 36 217 0.0 4.0 0.00 0.01 0.01 89 1018.2
20220926124527 36 216 0.0 2.0 0.00 0.01 0.01 89 1018.3
20220926123033 37 216 0.0 0.0 0.00 0.01 0.01 90 1018.2
20220926121527 37 216 0.0 1.0 0.00 0.01 0.01 90 1018.2
20220926120025 37 216 0.0 0.0 0.00 0.01 0.01 89 1018.3
20220926114531 38 216 0.0 0.0 0.00 0.01 0.01 89 1018.3